#timestamp,LO_Frequency,Hit,StdDev 
1597713795.5,286047009.6,P
1597713815.3,286047009.7,P
1597713835.1,286047011.3,P
1597713855.9,286047010.9,Y
1597713875.7,286047001.4,P
1597713895.6,286047001.7,N
1597713915.4,286047001.8,N
1597713935.2,286047004.3,N
1597713955.1,286047001.4,N
1597713956.0,286047001.4,N
1597713975.8,286047004.1,N
1597713995.6,286047003.8,N
1597714015.5,286047003.1,N
1597714035.3,286047003.8,N
1597714055.2,286047007.0,N
1597714075.9,286047005.4,N
1597714095.7,286047005.1,N
1597714115.6,286047007.5,Y
1597714135.4,286047001.4,P
1597714155.3,286047001.6,N
1597714175.1,286047005.9,P
1597714176.0,286047005.9,Y
1597714195.8,286047004.2,P
1597714215.7,286047001.6,P
1597714235.5,286047002.2,N
1597714255.3,286047001.4,N
1597714275.2,286047002.4,N
1597714295.0,286047002.2,N
1597714295.9,286047002.2,N
1597714315.8,286047000.2,N
1597714335.6,286047000.2,N
1597714355.4,286047002.5,N
1597714375.3,286047002.1,N
1597714395.1,286047002.4,N
1597714415.8,286047002.5,N
1597714435.7,286047002.5,N
1597714455.5,286046999.8,N
1597714475.4,286047001.0,N
1597714495.2,286047000.5,N
1597714515.0,286046999.8,N
1597714515.9,286046999.8,N
1597714535.8,286047002.6,N
1597714555.6,286047000.1,N
1597714575.4,286047000.9,N
1597714595.3,286047002.3,N
1597714615.1,286047001.1,N
1597714635.9,286046999.7,N
1597714655.7,286046999.8,N
1597714675.5,286047002.2,N
1597714695.4,286047001.4,N
1597714715.2,286047002.5,N
1597714735.0,286047001.7,N
1597714735.9,286047001.7,N
1597714755.8,286047002.4,N
1597714775.6,286047001.4,N
1597714795.5,286047001.7,N
1597714815.3,286047004.3,Y
1597714835.1,286047002.0,P
1597714855.9,286047003.7,P
1597714875.7,286047004.2,P
1597714895.6,286047003.6,Y
1597714915.4,286047002.1,P
1597714935.2,286047002.6,P
1597714955.1,286047001.4,P
1597714956.0,286047001.4,N
1597714975.8,286047001.9,Y
1597714995.6,286047000.8,P
1597715015.5,286046998.7,N
1597715035.3,286047001.2,N
1597715055.2,286047001.0,N
1597715075.9,286047000.0,N
1597715095.7,286046999.7,N
1597715115.6,286047002.2,N
1597715135.4,286047001.3,N
1597715155.2,286046999.8,N
1597715175.1,286047002.0,N
1597715176.0,286047002.0,N
1597715195.8,286047002.1,N
1597715215.7,286047000.3,N
1597715235.5,286046999.9,N
1597715255.3,286047000.6,N
1597715275.2,286047002.8,N
1597715295.0,286047002.7,N
1597715295.9,286047002.7,N
1597715315.8,286047001.3,N
1597715335.6,286047001.7,N
1597715355.4,286047001.3,N
1597715375.3,286047001.4,N
1597715395.1,286047004.1,Y
1597715415.8,286047001.5,P
1597715435.7,286047000.2,N
1597715455.5,286047001.0,N
1597715475.4,286047001.2,N
1597715495.2,286047001.1,N
1597715515.0,286047000.6,N
1597715515.9,286047000.6,N
1597715535.8,286047000.7,N
1597715555.6,286047000.0,N
1597715575.4,286047000.5,N
1597715595.3,286047000.7,N
1597715615.1,286047000.4,N
1597715635.9,286047001.2,N
1597715655.7,286046999.8,N
1597715675.5,286047002.2,Y
1597715695.4,286047002.4,P
1597715715.2,286046999.8,N
1597715735.0,286047000.6,N
1597715735.9,286047000.6,N
1597715755.8,286047000.3,N
1597715775.6,286046999.4,N
1597715795.5,286046998.3,N
1597715815.3,286046998.4,N
1597715835.1,286046996.6,N
1597715855.9,286046996.7,N
1597715875.7,286046997.5,N
1597715895.5,286046995.3,N
1597715915.4,286046995.5,N
1597715935.2,286046993.6,Y
1597715955.1,286046996.1,P
1597715956.0,286046996.1,N
1597715975.8,286046993.4,P
1597715995.6,286046995.5,N
